START_TIME,STEP,MOV.,M15,t_acc.,M20,t_acc.
1981-08-24 18:00:44.930 ,1,1,0.,24.0,0.,24.0
1981-08-24 18:01:08.930 ,2,1,0.,24.0,0.,24.0
1981-08-24 18:01:32.930 ,3,1,0.,24.0,0.,24.0
1981-08-24 18:01:56.930 ,4,1,0.,24.0,0.,24.0
1981-08-24 18:02:20.930 ,5,1,0.,24.0,0.,24.0
1981-08-24 18:02:44.930 ,6,1,0.,24.0,0.,24.0
1981-08-24 18:03:08.930 ,7,1,0.,24.0,0.,24.0
1981-08-24 18:03:32.930 ,7,1,0.,24.0,0.,24.0
1981-08-24 18:03:56.930 ,7,0,0.,24.0,0.,24.0
1981-08-24 18:04:20.930 ,6,1,0.,24.0,0.,24.0
1981-08-24 18:04:44.930 ,6,0,0.,24.0,0.,24.0
1981-08-24 18:05:08.930 ,5,1,0.,24.0,0.,24.0
1981-08-24 18:05:32.930 ,5,0,0.,24.0,0.,24.0
1981-08-24 18:05:56.930 ,4,1,0.,24.0,0.,24.0
1981-08-24 18:06:20.930 ,4,0,0.,24.0,0.,24.0
1981-08-24 18:06:44.930 ,3,1,0.,24.0,0.,24.0
1981-08-24 18:07:08.930 ,3,0,0.,24.0,0.,24.0
1981-08-24 18:07:32.930 ,2,1,0.,24.0,0.,24.0
1981-08-24 18:07:56.930 ,2,0,0.,24.0,0.,24.0
1981-08-24 18:08:20.930 ,1,1,0.,24.0,0.,24.0
1981-08-24 18:08:44.930 ,1,0,0.,24.0,0.,24.0
1981-08-24 18:09:08.930 ,0,1,0.,24.0,0.,24.0
1981-08-24 18:09:32.930 ,0,0,0.,24.0,0.,24.0
1981-08-24 18:09:56.930 ,0,1,0.,24.0,0.,24.0
1981-08-24 18:10:20.930 ,0,0,0.,24.0,0.,24.0
1981-08-24 18:10:44.930 ,1,1,0.,24.0,0.,24.0
1981-08-24 18:11:08.930 ,1,0,0.,24.0,0.,24.0
1981-08-24 18:11:32.930 ,2,1,0.,24.0,0.,24.0
1981-08-24 18:11:56.930 ,2,0,0.,24.0,0.,24.0
1981-08-24 18:12:20.930 ,3,1,0.,24.0,0.,24.0
1981-08-24 18:12:44.930 ,3,0,0.,24.0,0.,24.0
1981-08-24 18:13:08.930 ,4,1,0.,24.0,0.,24.0
1981-08-24 18:13:32.930 ,4,0,0.,24.0,0.,24.0
1981-08-24 18:13:56.930 ,5,1,0.,24.0,0.,24.0
1981-08-24 18:14:20.930 ,5,0,0.,24.0,0.,24.0
1981-08-24 18:14:44.930 ,6,1,0.,24.0,0.,24.0
1981-08-24 18:15:08.930 ,6,0,0.,24.0,0.,24.0
1981-08-24 18:15:32.930 ,7,1,0.,24.0,0.,24.0
1981-08-24 18:15:56.930 ,7,0,0.,24.0,0.,24.0
1981-08-24 18:16:20.930 ,7,1,0.,24.0,0.,24.0
1981-08-24 18:16:44.930 ,6,1,0.,24.0,0.,24.0
1981-08-24 18:17:08.930 ,5,1,0.,24.0,0.,24.0
1981-08-24 18:17:32.930 ,4,1,0.,24.0,0.,24.0
1981-08-24 18:17:56.930 ,3,1,0.,24.0,0.,24.0
1981-08-24 18:18:20.930 ,2,1,0.,24.0,0.,24.0
1981-08-24 18:18:44.930 ,1,1,0.,24.0,0.,24.0
1981-08-24 18:19:08.930 ,0,1,0.,24.0,0.,24.0
1981-08-24 18:19:32.930 ,0,1,0.,24.0,0.,24.0
1981-08-24 18:19:56.930 ,1,1,0.,24.0,0.,24.0
1981-08-24 18:20:20.930 ,2,1,0.,24.0,0.,24.0
1981-08-24 18:20:44.930 ,3,1,0.,24.0,0.,24.0
1981-08-24 18:21:08.930 ,4,1,0.,24.0,0.,24.0
1981-08-24 18:21:32.930 ,5,1,0.,24.0,0.,24.0
1981-08-24 18:21:56.930 ,6,1,0.,24.0,0.,24.0
1981-08-24 18:22:20.930 ,7,1,0.,24.0,0.,24.0
1981-08-24 18:22:44.930 ,7,1,0.,24.0,0.,24.0
1981-08-24 18:23:08.930 ,7,0,0.,24.0,0.,24.0
1981-08-24 18:23:32.930 ,6,1,0.,24.0,0.,24.0
1981-08-24 18:23:56.930 ,6,0,0.,24.0,0.,24.0
1981-08-24 18:24:20.930 ,5,1,0.,24.0,0.,24.0
1981-08-24 18:24:44.930 ,5,0,0.,24.0,0.,24.0
1981-08-24 18:25:08.930 ,4,1,0.,24.0,0.,24.0
1981-08-24 18:25:32.930 ,4,0,0.,24.0,0.,24.0
1981-08-24 18:25:56.930 ,3,1,0.,24.0,0.,24.0
1981-08-24 18:26:20.930 ,3,0,0.,24.0,0.,24.0
1981-08-24 18:26:44.930 ,2,1,0.,24.0,0.,24.0
1981-08-24 18:27:08.930 ,2,0,0.,24.0,0.,24.0
1981-08-24 18:27:32.930 ,1,1,0.,24.0,0.,24.0
1981-08-24 18:27:56.930 ,1,0,0.,24.0,0.,24.0
1981-08-24 18:28:20.930 ,0,1,0.,24.0,0.,24.0
1981-08-24 18:28:44.930 ,0,0,0.,24.0,0.,24.0
1981-08-24 18:29:08.930 ,0,1,0.,24.0,0.,24.0
1981-08-24 18:29:32.930 ,0,0,0.,24.0,0.,24.0
1981-08-24 18:29:56.930 ,1,1,0.,24.0,0.,24.0
1981-08-24 18:30:20.930 ,1,0,0.,24.0,0.,24.0
1981-08-24 18:30:44.930 ,2,1,0.,24.0,0.,24.0
1981-08-24 18:31:08.930 ,2,0,0.,24.0,0.,24.0
1981-08-24 18:31:32.930 ,3,1,0.,24.0,0.,24.0
1981-08-24 18:31:56.930 ,3,0,0.,24.0,0.,24.0
1981-08-24 18:32:20.930 ,4,1,0.,24.0,0.,24.0
1981-08-24 18:32:44.930 ,4,0,0.,24.0,0.,24.0
1981-08-24 18:33:08.930 ,5,1,0.,24.0,0.,24.0
1981-08-24 18:33:32.930 ,5,0,0.,24.0,0.,24.0
1981-08-24 18:33:56.930 ,6,1,0.,24.0,0.,24.0
1981-08-24 18:34:20.930 ,6,0,0.,24.0,0.,24.0
1981-08-24 18:34:44.930 ,7,1,0.,24.0,0.,24.0
1981-08-24 18:35:08.930 ,7,0,0.,24.0,0.,24.0
1981-08-24 18:35:32.930 ,7,1,0.,24.0,0.,24.0
1981-08-24 18:35:56.930 ,6,1,0.,24.0,0.,24.0
1981-08-24 18:36:20.930 ,5,1,0.,24.0,0.,24.0
1981-08-24 18:36:44.930 ,4,1,0.,24.0,0.,24.0
1981-08-24 18:37:08.930 ,3,1,0.,24.0,0.,24.0
1981-08-24 18:37:32.930 ,2,1,0.,24.0,0.,24.0
1981-08-24 18:37:56.930 ,1,1,0.,24.0,0.,24.0
1981-08-24 18:38:20.930 ,0,1,0.,24.0,0.,24.0
1981-08-24 18:38:44.930 ,0,1,0.,24.0,0.,24.0
1981-08-24 18:39:08.930 ,1,1,0.,24.0,0.,24.0
1981-08-24 18:39:32.930 ,2,1,0.,24.0,0.,24.0
1981-08-24 18:39:56.930 ,3,1,0.,24.0,0.,24.0
1981-08-24 18:40:20.930 ,4,1,0.,24.0,0.,24.0
1981-08-24 18:40:44.930 ,5,1,0.,24.0,0.,24.0
1981-08-24 18:41:08.930 ,6,1,0.,24.0,0.,24.0
1981-08-24 18:41:32.930 ,7,1,0.,24.0,0.,24.0
1981-08-24 18:41:56.930 ,7,1,0.,24.0,0.,24.0
1981-08-24 18:42:20.930 ,7,0,0.,24.0,0.,24.0
1981-08-24 18:42:44.930 ,6,1,0.,24.0,0.,24.0
1981-08-24 18:43:08.930 ,6,0,0.,24.0,0.,24.0
1981-08-24 18:43:32.930 ,5,1,0.,24.0,0.,24.0
1981-08-24 18:43:56.930 ,5,0,0.,24.0,0.,24.0
1981-08-24 18:44:20.930 ,4,1,0.,24.0,0.,24.0
1981-08-24 18:44:44.930 ,4,0,0.,24.0,0.,24.0
1981-08-24 18:45:08.930 ,3,1,0.,24.0,0.,24.0
1981-08-24 18:45:32.930 ,3,0,0.,24.0,0.,24.0
1981-08-24 18:45:56.930 ,2,1,0.,24.0,0.,24.0
1981-08-24 18:46:20.930 ,2,0,0.,24.0,0.,24.0
1981-08-24 18:46:44.930 ,1,1,0.,24.0,0.,24.0
1981-08-24 18:47:08.930 ,1,0,0.,24.0,0.,24.0
1981-08-24 18:47:32.930 ,0,1,0.,24.0,0.,24.0
1981-08-24 18:47:56.930 ,0,0,0.,24.0,0.,24.0
1981-08-24 18:48:20.930 ,0,1,0.,24.0,0.,24.0
1981-08-24 18:48:44.930 ,0,0,0.,24.0,0.,24.0
1981-08-24 18:49:08.930 ,1,1,0.,24.0,0.,24.0
1981-08-24 18:49:32.930 ,1,0,0.,24.0,0.,24.0
1981-08-24 18:49:56.930 ,2,1,0.,24.0,0.,24.0
1981-08-24 18:50:20.930 ,2,0,0.,24.0,0.,24.0
1981-08-24 18:50:44.930 ,3,1,0.,24.0,0.,24.0
1981-08-24 18:51:08.930 ,3,0,0.,24.0,0.,24.0
1981-08-24 18:51:32.930 ,4,1,0.,24.0,0.,24.0
1981-08-24 18:51:56.930 ,4,0,0.,24.0,0.,24.0
1981-08-24 18:52:20.930 ,5,1,0.,24.0,0.,24.0
1981-08-24 18:52:44.930 ,5,0,0.,24.0,0.,24.0
1981-08-24 18:53:08.930 ,6,1,0.,24.0,0.,24.0
1981-08-24 18:53:32.930 ,6,0,0.,24.0,0.,24.0
1981-08-24 18:53:56.930 ,7,1,0.,24.0,0.,24.0
1981-08-24 18:54:20.930 ,7,0,0.,24.0,0.,24.0
1981-08-24 18:54:44.930 ,7,1,0.,24.0,0.,24.0
1981-08-24 18:55:08.930 ,6,1,0.,24.0,0.,24.0
1981-08-24 18:55:32.930 ,5,1,0.,24.0,0.,24.0
1981-08-24 18:55:56.930 ,4,1,0.,24.0,0.,24.0
1981-08-24 18:56:20.930 ,3,1,0.,24.0,0.,24.0
1981-08-24 18:56:44.930 ,2,1,0.,24.0,0.,24.0
1981-08-24 18:57:08.930 ,1,1,0.,24.0,0.,24.0
1981-08-24 18:57:32.930 ,0,1,0.,24.0,0.,24.0
1981-08-24 18:57:56.930 ,0,1,0.,24.0,0.,24.0
1981-08-24 18:58:20.930 ,1,1,0.,24.0,0.,24.0
1981-08-24 18:58:44.930 ,2,1,0.,24.0,0.,24.0
1981-08-24 18:59:08.930 ,3,1,0.,24.0,0.,24.0
1981-08-24 18:59:32.930 ,4,1,0.,24.0,0.,24.0
1981-08-24 18:59:56.930 ,5,1,0.,24.0,0.,24.0
1981-08-24 19:00:20.930 ,6,1,0.,24.0,0.,24.0
1981-08-24 19:00:44.930 ,7,1,0.,24.0,0.,24.0
1981-08-24 19:01:08.930 ,7,1,0.,24.0,0.,24.0
1981-08-24 19:01:32.930 ,7,0,0.,24.0,0.,24.0
1981-08-24 19:01:56.930 ,6,1,0.,24.0,0.,24.0
1981-08-24 19:02:20.930 ,6,0,0.,24.0,0.,24.0
1981-08-24 19:02:44.930 ,5,1,0.,24.0,0.,24.0
1981-08-24 19:03:08.930 ,5,0,0.,24.0,0.,24.0
1981-08-24 19:03:32.930 ,4,1,0.,24.0,0.,24.0
1981-08-24 19:03:56.930 ,4,0,0.,24.0,0.,24.0
1981-08-24 19:04:20.930 ,3,1,0.,24.0,0.,24.0
1981-08-24 19:04:44.930 ,3,0,0.,24.0,0.,24.0
1981-08-24 19:05:08.930 ,2,1,0.,24.0,0.,24.0
1981-08-24 19:05:32.930 ,2,0,0.,24.0,0.,24.0
1981-08-24 19:05:56.930 ,1,1,0.,24.0,0.,24.0
1981-08-24 19:06:20.930 ,1,0,0.,24.0,0.,24.0
1981-08-24 19:06:44.930 ,0,1,0.,24.0,0.,24.0
1981-08-24 19:07:08.930 ,0,0,0.,24.0,0.,24.0
1981-08-24 19:07:32.930 ,0,1,0.,24.0,0.,24.0
1981-08-24 19:07:56.930 ,0,0,0.,24.0,0.,24.0
1981-08-24 19:08:20.930 ,1,1,0.,24.0,0.,24.0
1981-08-24 19:08:44.930 ,1,0,0.,24.0,0.,24.0
1981-08-24 19:09:08.930 ,2,1,0.,24.0,0.,24.0
1981-08-24 19:09:32.930 ,2,0,0.,24.0,0.,24.0
1981-08-24 19:09:56.930 ,3,1,0.,24.0,0.,24.0
1981-08-24 19:10:20.930 ,3,0,0.,24.0,0.,24.0
1981-08-24 19:10:44.930 ,4,1,0.,24.0,0.,24.0
1981-08-24 19:11:08.930 ,4,0,0.,24.0,0.,24.0
1981-08-24 19:11:32.930 ,5,1,0.,24.0,0.,24.0
1981-08-24 19:11:56.930 ,5,0,0.,24.0,0.,24.0
1981-08-24 19:12:20.930 ,6,1,0.,24.0,0.,24.0
1981-08-24 19:12:44.930 ,6,0,0.,24.0,0.,24.0
1981-08-24 19:13:08.930 ,7,1,0.,24.0,0.,24.0
1981-08-24 19:13:32.930 ,7,0,0.,24.0,0.,24.0
1981-08-24 19:13:56.930 ,7,1,0.,24.0,0.,24.0
1981-08-24 19:14:20.930 ,6,1,0.,24.0,0.,24.0
1981-08-24 19:14:44.930 ,5,1,0.,24.0,0.,24.0
1981-08-24 19:15:08.930 ,4,1,0.,24.0,0.,24.0
1981-08-24 19:15:32.930 ,3,1,0.,24.0,0.,24.0
1981-08-24 19:15:56.930 ,2,1,0.,24.0,0.,24.0
1981-08-24 19:16:20.930 ,1,1,0.,24.0,0.,24.0
1981-08-24 19:16:44.930 ,0,1,0.,24.0,0.,24.0
1981-08-24 19:17:08.930 ,0,0,,0,,0
1981-08-24 19:17:32.930 ,1,1,0.,24.0,0.,24.0
1981-08-24 19:17:56.930 ,2,1,0.,24.0,0.,24.0
1981-08-24 19:18:20.930 ,3,1,0.,24.0,0.,24.0
1981-08-24 19:18:44.930 ,4,1,0.,24.0,0.,24.0
1981-08-24 19:19:08.930 ,5,1,0.,24.0,0.,24.0
1981-08-24 19:19:32.930 ,6,1,0.,24.0,0.,24.0
1981-08-24 19:19:56.930 ,7,1,0.,24.0,0.,24.0
1981-08-24 19:20:20.930 ,7,1,0.,24.0,0.,24.0
1981-08-24 19:20:44.930 ,7,0,0.,24.0,0.,24.0
1981-08-24 19:21:08.930 ,6,1,0.,24.0,0.,24.0
1981-08-24 19:21:32.930 ,6,0,0.,24.0,0.,24.0
1981-08-24 19:21:56.930 ,5,1,0.,24.0,0.,24.0
1981-08-24 19:22:20.930 ,5,0,0.,24.0,0.,24.0
1981-08-24 19:22:44.930 ,4,1,0.,24.0,0.,24.0
1981-08-24 19:23:08.930 ,4,0,0.,24.0,0.,24.0
1981-08-24 19:23:32.930 ,3,1,0.,24.0,0.,24.0
1981-08-24 19:23:56.930 ,3,0,0.,24.0,0.,24.0
1981-08-24 19:24:20.930 ,2,1,0.,24.0,0.,24.0
1981-08-24 19:24:44.930 ,2,0,0.,24.0,0.,24.0
1981-08-24 19:25:08.930 ,1,1,0.,24.0,0.,24.0
1981-08-24 19:25:32.930 ,1,0,0.,24.0,0.,24.0
1981-08-24 19:25:56.930 ,0,1,0.,24.0,0.,24.0
1981-08-24 19:26:20.930 ,0,0,0.,24.0,0.,24.0
1981-08-24 19:26:44.930 ,0,1,0.,24.0,0.,24.0
1981-08-24 19:27:08.930 ,0,0,0.,24.0,0.,24.0
1981-08-24 19:27:32.930 ,1,1,0.,24.0,0.,24.0
1981-08-24 19:27:56.930 ,1,0,0.,24.0,0.,24.0
1981-08-24 19:28:20.930 ,2,1,0.,24.0,0.,24.0
1981-08-24 19:28:44.930 ,2,0,0.,24.0,0.,24.0
1981-08-24 19:29:08.930 ,3,1,0.,24.0,0.,24.0
1981-08-24 19:29:32.930 ,3,0,0.,24.0,0.,24.0
1981-08-24 19:29:56.930 ,4,1,0.,24.0,0.,24.0
1981-08-24 19:30:20.930 ,4,0,0.,24.0,0.,24.0
1981-08-24 19:30:44.930 ,5,1,0.,24.0,0.,24.0
1981-08-24 19:31:08.930 ,5,0,0.,24.0,0.,24.0
1981-08-24 19:31:32.930 ,6,1,0.,24.0,0.,24.0
1981-08-24 19:31:56.930 ,6,0,0.,24.0,0.,24.0
1981-08-24 19:32:20.930 ,7,1,0.,24.0,0.,24.0
1981-08-24 19:32:44.930 ,7,0,0.,24.0,0.,24.0
1981-08-24 19:33:08.930 ,7,1,0.,24.0,0.,24.0
1981-08-24 19:33:32.930 ,6,1,0.,24.0,0.,24.0
1981-08-24 19:33:56.930 ,5,1,0.,24.0,0.,24.0
1981-08-24 19:34:20.930 ,4,1,0.,24.0,0.,24.0
1981-08-24 19:34:44.930 ,3,1,0.,24.0,0.,24.0
1981-08-24 19:35:08.930 ,2,1,0.,24.0,0.,24.0
1981-08-24 19:35:32.930 ,1,1,0.,24.0,0.,24.0
1981-08-24 19:35:56.930 ,0,1,0.,24.0,0.,24.0
1981-08-24 19:36:20.930 ,0,1,0.,24.0,0.,24.0
1981-08-24 19:36:44.930 ,1,1,0.,24.0,0.,24.0
1981-08-24 19:37:08.930 ,2,1,0.,24.0,0.,24.0
1981-08-24 19:37:32.930 ,3,1,0.,24.0,0.,24.0
1981-08-24 19:37:56.930 ,4,1,0.,24.0,0.,24.0
1981-08-24 19:38:20.930 ,5,1,0.,24.0,0.,24.0
1981-08-24 19:38:44.930 ,6,1,0.,24.0,0.,24.0
1981-08-24 19:39:08.930 ,7,1,0.,24.0,0.,24.0
1981-08-24 19:39:32.930 ,7,1,0.,24.0,0.,24.0
1981-08-24 19:39:56.930 ,7,0,0.,24.0,0.,24.0
1981-08-24 19:40:20.930 ,6,1,0.,24.0,0.,24.0
1981-08-24 19:40:44.930 ,6,0,0.,24.0,0.,24.0
1981-08-24 19:41:08.930 ,5,1,0.,24.0,0.,24.0
1981-08-24 19:41:32.930 ,5,0,0.,24.0,0.,24.0
1981-08-24 19:41:56.930 ,4,1,0.,24.0,0.,24.0
1981-08-24 19:42:20.930 ,4,0,0.,24.0,0.,24.0
1981-08-24 19:42:44.930 ,3,1,0.,24.0,0.,24.0
1981-08-24 19:43:08.930 ,3,0,0.,24.0,0.,24.0
1981-08-24 19:43:32.930 ,2,1,0.,24.0,0.,24.0
1981-08-24 19:43:56.930 ,2,0,0.,24.0,0.,24.0
1981-08-24 19:44:20.930 ,1,1,0.,24.0,0.,24.0
1981-08-24 19:44:44.930 ,1,0,0.,24.0,0.,24.0
1981-08-24 19:45:08.930 ,0,1,0.,24.0,0.,24.0
1981-08-24 19:45:32.930 ,0,0,0.,24.0,0.,24.0
1981-08-24 19:45:56.930 ,0,1,0.,24.0,0.,24.0
1981-08-24 19:46:20.930 ,0,0,0.,24.0,0.,24.0
1981-08-24 19:46:44.930 ,1,1,0.,24.0,0.,24.0
1981-08-24 19:47:08.930 ,1,0,0.,24.0,0.,24.0
1981-08-24 19:47:32.930 ,2,1,0.,24.0,0.,24.0
1981-08-24 19:47:56.930 ,2,0,0.,24.0,0.,24.0
1981-08-24 19:48:20.930 ,3,1,0.,24.0,0.,24.0
1981-08-24 19:48:44.930 ,3,0,0.,24.0,0.,24.0
1981-08-24 19:49:08.930 ,4,1,0.,24.0,0.,24.0
1981-08-24 19:49:32.930 ,4,0,0.,24.0,0.,24.0
1981-08-24 19:49:56.930 ,5,1,0.,24.0,0.,24.0
1981-08-24 19:50:20.930 ,5,0,0.,24.0,0.,24.0
1981-08-24 19:50:44.930 ,6,1,0.,24.0,0.,24.0
1981-08-24 19:51:08.930 ,6,0,0.,24.0,0.,24.0
1981-08-24 19:51:32.930 ,7,1,0.,24.0,0.,24.0
1981-08-24 19:51:56.930 ,7,0,0.,24.0,0.,24.0
1981-08-24 19:52:20.930 ,7,1,0.,24.0,0.,24.0
1981-08-24 19:52:44.930 ,6,1,0.,24.0,0.,24.0
1981-08-24 19:53:08.930 ,5,1,0.,24.0,0.,24.0
1981-08-24 19:53:32.930 ,4,1,0.,24.0,0.,24.0
1981-08-24 19:53:56.930 ,3,1,0.,24.0,0.,24.0
1981-08-24 19:54:20.930 ,2,1,0.,24.0,0.,24.0
1981-08-24 19:54:44.930 ,1,1,0.,24.0,0.,24.0
1981-08-24 19:55:08.930 ,0,1,0.,24.0,0.,24.0
1981-08-24 19:55:32.930 ,0,1,0.,24.0,0.,24.0
1981-08-24 19:55:56.930 ,1,1,0.,24.0,0.,24.0
1981-08-24 19:56:20.930 ,2,1,0.,24.0,0.,24.0
1981-08-24 19:56:44.930 ,3,1,0.,24.0,0.,24.0
1981-08-24 19:57:08.920 ,4,1,0.,24.0,0.,24.0
1981-08-24 19:57:32.920 ,5,1,0.,24.0,0.,24.0
1981-08-24 19:57:56.920 ,6,1,0.,24.0,0.,24.0
1981-08-24 19:58:20.920 ,7,1,0.,24.0,0.,24.0
1981-08-24 19:58:44.920 ,7,1,0.,24.0,0.,24.0
1981-08-24 19:59:08.920 ,7,0,0.,24.0,0.,24.0
1981-08-24 19:59:32.920 ,6,1,0.,24.0,0.,24.0
1981-08-24 19:59:56.920 ,6,0,0.,24.0,0.,24.0
1981-08-24 20:00:20.920 ,5,1,0.,24.0,0.,24.0
1981-08-24 20:00:44.930 ,5,0,0.,24.0,0.,24.0
1981-08-24 20:01:08.930 ,4,1,0.,24.0,0.,24.0
1981-08-24 20:01:32.930 ,4,0,0.,24.0,0.,24.0
1981-08-24 20:01:56.930 ,3,1,0.,24.0,0.,24.0
1981-08-24 20:02:20.930 ,3,0,0.,24.0,0.,24.0
1981-08-24 20:02:44.930 ,2,1,0.,24.0,0.,24.0
1981-08-24 20:03:08.930 ,2,0,0.,24.0,0.,24.0
1981-08-24 20:03:32.930 ,1,1,0.,24.0,0.,24.0
1981-08-24 20:03:56.930 ,1,0,0.,24.0,0.,24.0
1981-08-24 20:04:20.930 ,0,1,0.,24.0,0.,24.0
1981-08-24 20:04:44.930 ,0,0,0.,24.0,0.,24.0
1981-08-24 20:05:08.920 ,0,1,0.,24.0,0.,24.0
1981-08-24 20:05:32.930 ,0,0,0.,24.0,0.,24.0
1981-08-24 20:05:56.930 ,1,1,0.,24.0,0.,24.0
1981-08-24 20:06:20.930 ,1,0,0.,24.0,0.,24.0
1981-08-24 20:06:44.930 ,2,1,0.,24.0,0.,24.0
1981-08-24 20:07:08.920 ,2,0,0.,24.0,0.,24.0
1981-08-24 20:07:32.930 ,3,1,0.,24.0,0.,24.0
1981-08-24 20:07:56.930 ,3,0,0.,24.0,0.,24.0
1981-08-24 20:08:20.930 ,4,1,0.,24.0,0.,24.0
1981-08-24 20:08:44.920 ,4,0,0.,24.0,0.,24.0
1981-08-24 20:09:08.930 ,5,1,0.,24.0,0.,24.0
1981-08-24 20:09:32.930 ,5,0,0.,24.0,0.,24.0
1981-08-24 20:09:56.930 ,6,1,0.,24.0,0.,24.0
1981-08-24 20:10:20.930 ,6,0,0.,24.0,0.,24.0
1981-08-24 20:10:44.930 ,7,1,0.,24.0,0.,24.0
1981-08-24 20:11:08.930 ,7,0,0.,24.0,0.,24.0
1981-08-24 20:11:32.930 ,7,1,0.,24.0,0.,24.0
1981-08-24 20:11:56.930 ,6,1,0.,24.0,0.,24.0
1981-08-24 20:12:20.930 ,5,1,0.,24.0,0.,24.0
1981-08-24 20:12:44.930 ,4,1,0.,24.0,0.,24.0
1981-08-24 20:13:08.930 ,3,1,0.,24.0,0.,24.0
1981-08-24 20:13:32.930 ,2,1,0.,24.0,0.,24.0
1981-08-24 20:13:56.920 ,1,1,0.,24.0,0.,24.0
1981-08-24 20:14:20.920 ,0,1,0.,24.0,0.,24.0
1981-08-24 20:44:20.920 ,0,0,0.,24.0,0.,24.0
1981-08-24 20:44:44.920 ,0,0,0.,24.0,0.,24.0
1981-08-24 20:45:08.920 ,2,1,0.,24.0,0.,24.0
1981-08-24 20:45:32.920 ,2,0,0.,24.0,0.,24.0
1981-08-24 20:45:56.920 ,3,1,0.,24.0,0.,24.0
1981-08-24 20:46:20.920 ,3,0,0.,24.0,0.,24.0
1981-08-24 20:46:44.920 ,4,1,0.,24.0,0.,24.0
1981-08-24 20:47:08.920 ,4,0,0.,24.0,0.,24.0
1981-08-24 20:47:32.920 ,5,1,0.,24.0,0.,24.0
1981-08-24 20:47:56.920 ,5,0,0.,24.0,0.,24.0
1981-08-24 20:48:20.920 ,6,1,0.,24.0,0.,24.0
1981-08-24 20:48:44.920 ,6,0,0.,24.0,0.,24.0
1981-08-24 20:49:08.920 ,7,1,0.,24.0,0.,24.0
1981-08-24 20:49:32.920 ,7,0,0.,24.0,0.,24.0
1981-08-24 20:49:56.920 ,7,1,0.,24.0,0.,24.0
1981-08-24 20:50:20.920 ,6,1,0.,24.0,0.,24.0
1981-08-24 20:50:44.920 ,5,1,0.,24.0,0.,24.0
1981-08-24 20:51:08.920 ,4,1,0.,24.0,0.,24.0
1981-08-24 20:51:32.920 ,3,1,0.,24.0,0.,24.0
1981-08-24 20:51:56.920 ,2,1,0.,24.0,0.,24.0
1981-08-24 20:52:20.920 ,1,1,0.,24.0,0.,24.0
1981-08-24 20:52:44.920 ,0,1,0.,24.0,0.,24.0
1981-08-24 20:53:08.920 ,0,1,0.,24.0,0.,24.0
1981-08-24 20:53:32.920 ,1,1,0.,24.0,0.,24.0
1981-08-24 20:53:56.920 ,2,1,0.,24.0,0.,24.0
1981-08-24 20:54:20.920 ,3,1,0.,24.0,0.,24.0
1981-08-24 20:54:44.920 ,4,1,0.,24.0,0.,24.0
1981-08-24 20:55:08.920 ,5,1,0.,24.0,0.,24.0
1981-08-24 20:55:32.920 ,6,1,0.,24.0,0.,24.0
1981-08-24 20:55:56.920 ,7,1,0.,24.0,0.,24.0
1981-08-24 20:56:20.920 ,7,1,0.,24.0,0.,24.0
1981-08-24 20:56:44.920 ,7,0,0.,24.0,0.,24.0
1981-08-24 20:57:08.920 ,6,1,0.,24.0,0.,24.0
1981-08-24 20:57:32.920 ,6,0,0.,24.0,0.,24.0
1981-08-24 20:57:56.920 ,5,1,0.,24.0,0.,24.0
1981-08-24 20:58:20.920 ,5,0,0.,24.0,0.,24.0
1981-08-24 20:58:44.920 ,4,1,0.,24.0,0.,24.0
1981-08-24 20:59:08.920 ,4,0,0.,24.0,0.,24.0
1981-08-24 20:59:32.920 ,3,1,0.,24.0,0.,24.0
1981-08-24 20:59:56.920 ,3,0,0.,24.0,0.,24.0
1981-08-24 21:00:20.920 ,2,1,0.,24.0,0.,24.0
